WWA2482 KBOS-KAVL

Flight info

Callsign WWA2482
Flight time 2h 5m
Altitude 36000
Route BLZZR6 BLZZR BAF Q448 PTW J48 CSN FANPO Q40 FEEDS SUG
Aircraft CRJ9/M-SDFGIRWY/S

Departure

Time 2026-05-09 02:05
Airport Boston Logan International Airport (KBOS)

Arrival

Time 2026-05-09 04:10
Airport Asheville Regional Airport (KAVL)
Time Latitude Longitude Altitude Speed Heading
2026-05-09 01:34 42.36708 -71.01525 25 ft 0 kts 342°
2026-05-09 01:48 42.36703 -71.01522 24 ft 4 kts 342°
2026-05-09 01:49 42.36677 -71.01511 25 ft 4 kts 342°
2026-05-09 01:49 42.36651 -71.01500 27 ft 4 kts 342°
2026-05-09 01:49 42.36645 -71.01497 26 ft 0 kts 342°
2026-05-09 01:51 42.36648 -71.01498 26 ft 0 kts 348°
2026-05-09 01:51 42.36650 -71.01498 27 ft 0 kts 348°
2026-05-09 01:52 42.36652 -71.01499 27 ft 0 kts 350°
2026-05-09 01:52 42.36653 -71.01499 26 ft 0 kts 354°
2026-05-09 01:52 42.36669 -71.01491 26 ft 8 kts 33°
2026-05-09 01:52 42.36681 -71.01473 25 ft 1 kts 78°
2026-05-09 01:53 42.36688 -71.01423 24 ft 7 kts 79°
2026-05-09 01:53 42.36694 -71.01375 24 ft 0 kts 80°
2026-05-09 01:56 42.36695 -71.01368 24 ft 2 kts 80°
2026-05-09 01:56 42.36701 -71.01325 24 ft 7 kts 80°
2026-05-09 01:56 42.36688 -71.01247 25 ft 10 kts 115°
2026-05-09 01:57 42.36644 -71.01199 25 ft 7 kts 173°
2026-05-09 01:57 42.36581 -71.01217 24 ft 10 kts 198°
2026-05-09 01:57 42.36492 -71.01259 24 ft 16 kts 200°
2026-05-09 01:57 42.36386 -71.01311 24 ft 16 kts 198°
2026-05-09 01:58 42.36321 -71.01280 24 ft 10 kts 126°
2026-05-09 01:58 42.36264 -71.01155 25 ft 19 kts 117°
2026-05-09 01:58 42.36210 -71.00997 23 ft 18 kts 114°
2026-05-09 01:58 42.36165 -71.00861 23 ft 8 kts 114°
2026-05-09 01:59 42.36156 -71.00836 23 ft 0 kts 114°
2026-05-09 01:59 42.36151 -71.00818 24 ft 8 kts 114°
2026-05-09 01:59 42.36113 -71.00686 26 ft 22 kts 109°
2026-05-09 02:00 42.36060 -71.00484 23 ft 23 kts 109°
2026-05-09 02:00 42.36027 -71.00351 25 ft 22 kts 109°
2026-05-09 02:00 42.35977 -71.00156 23 ft 22 kts 112°
2026-05-09 02:00 42.35847 -70.99937 24 ft 23 kts 135°
2026-05-09 02:01 42.35733 -70.99785 24 ft 23 kts 135°
2026-05-09 02:01 42.35622 -70.99637 24 ft 22 kts 136°
2026-05-09 02:01 42.35519 -70.99499 24 ft 18 kts 135°
2026-05-09 02:01 42.35492 -70.99398 24 ft 0 kts 78°
2026-05-09 02:03 42.35492 -70.99394 24 ft 1 kts 79°
2026-05-09 02:03 42.35497 -70.99363 24 ft 5 kts 79°
2026-05-09 02:03 42.35508 -70.99294 24 ft 10 kts 77°
2026-05-09 02:03 42.35528 -70.99268 25 ft 2 kts 358°
2026-05-09 02:04 42.35548 -70.99280 24 ft 4 kts 325°
2026-05-09 02:04 42.35567 -70.99303 24 ft 4 kts 316°
2026-05-09 02:04 42.35641 -70.99401 25 ft 42 kts 314°
2026-05-09 02:04 42.36018 -70.99905 24 ft 108 kts 316°
2026-05-09 02:05 42.36666 -71.00772 28 ft 154 kts 315°
2026-05-09 02:05 42.37477 -71.01822 454 ft 159 kts 313°
2026-05-09 02:05 42.38256 -71.02938 971 ft 164 kts 314°
2026-05-09 02:05 42.39053 -71.03966 1696 ft 156 kts 315°
2026-05-09 02:06 42.39765 -71.05119 2211 ft 164 kts 303°
2026-05-09 02:06 42.40396 -71.06387 2946 ft 163 kts 301°
2026-05-09 02:06 42.41052 -71.07760 3312 ft 192 kts 301°
2026-05-09 02:07 42.41626 -71.11496 4316 ft 235 kts 244°
2026-05-09 02:07 42.40736 -71.13414 4935 ft 247 kts 240°
2026-05-09 02:07 42.39892 -71.15468 5692 ft 249 kts 245°
2026-05-09 02:07 42.39163 -71.17562 6487 ft 250 kts 249°
2026-05-09 02:08 42.38507 -71.19739 7240 ft 251 kts 251°
2026-05-09 02:08 42.37894 -71.21959 7989 ft 253 kts 252°
2026-05-09 02:08 42.37296 -71.24206 8703 ft 254 kts 252°
2026-05-09 02:08 42.36686 -71.26463 9440 ft 256 kts 252°
2026-05-09 02:09 42.36066 -71.28733 10152 ft 258 kts 252°
2026-05-09 02:09 42.35436 -71.31020 10830 ft 260 kts 253°
2026-05-09 02:09 42.34798 -71.33325 11500 ft 262 kts 253°
2026-05-09 02:09 42.34150 -71.35648 12098 ft 269 kts 252°
2026-05-09 02:10 42.33449 -71.38123 12122 ft 295 kts 252°
2026-05-09 02:10 42.32650 -71.40797 12230 ft 317 kts 251°
2026-05-09 02:10 42.31787 -71.43630 12419 ft 334 kts 250°
2026-05-09 02:10 42.30874 -71.46594 12675 ft 348 kts 250°
2026-05-09 02:11 42.29954 -71.49561 13351 ft 349 kts 251°
2026-05-09 02:11 42.29015 -71.52600 13931 ft 352 kts 251°
2026-05-09 02:11 42.28069 -71.55657 14536 ft 354 kts 251°
2026-05-09 02:11 42.27120 -71.58729 15134 ft 355 kts 251°
2026-05-09 02:12 42.26161 -71.61824 15688 ft 358 kts 251°
2026-05-09 02:12 42.25198 -71.64932 16244 ft 360 kts 251°
2026-05-09 02:12 42.24228 -71.68057 16803 ft 362 kts 251°
2026-05-09 02:12 42.23251 -71.71199 17342 ft 364 kts 252°
2026-05-09 02:13 42.22271 -71.74365 17878 ft 366 kts 253°
2026-05-09 02:13 42.21621 -71.77670 18366 ft 363 kts 264°
2026-05-09 02:13 42.21323 -71.81054 18806 ft 363 kts 268°
2026-05-09 02:13 42.21182 -71.84419 19225 ft 365 kts 269°
2026-05-09 02:14 42.21055 -71.87847 19653 ft 367 kts 269°
2026-05-09 02:14 42.20916 -71.91299 20071 ft 370 kts 269°
2026-05-09 02:14 42.20737 -71.94766 20457 ft 372 kts 268°
2026-05-09 02:14 42.20547 -71.98257 20844 ft 374 kts 268°
2026-05-09 02:15 42.20347 -72.01767 21231 ft 376 kts 268°
2026-05-09 02:15 42.20152 -72.05290 21601 ft 377 kts 268°
2026-05-09 02:15 42.19954 -72.08831 21961 ft 379 kts 268°
2026-05-09 02:15 42.19749 -72.12391 22306 ft 381 kts 268°
2026-05-09 02:16 42.19546 -72.15965 22651 ft 383 kts 268°
2026-05-09 02:16 42.19342 -72.19511 22989 ft 385 kts 268°
2026-05-09 02:16 42.19134 -72.23122 23339 ft 387 kts 268°
2026-05-09 02:16 42.18924 -72.26757 23656 ft 388 kts 268°
2026-05-09 02:17 42.18712 -72.30384 23949 ft 389 kts 268°
2026-05-09 02:17 42.18497 -72.34019 24239 ft 390 kts 268°
2026-05-09 02:17 42.18283 -72.37661 24515 ft 391 kts 268°
2026-05-09 02:17 42.18067 -72.41333 24619 ft 396 kts 268°
2026-05-09 02:18 42.17843 -72.45056 24786 ft 398 kts 268°
2026-05-09 02:18 42.17621 -72.48770 25149 ft 396 kts 268°
2026-05-09 02:18 42.17398 -72.52466 25489 ft 395 kts 268°
2026-05-09 02:18 42.17173 -72.56151 25845 ft 393 kts 268°
2026-05-09 02:19 42.16950 -72.59813 26187 ft 391 kts 268°
2026-05-09 02:19 42.16727 -72.63447 26699 ft 383 kts 268°
2026-05-09 02:19 42.16406 -72.66911 27440 ft 376 kts 259°
2026-05-09 02:19 42.15407 -72.70151 28103 ft 373 kts 249°
2026-05-09 02:20 42.14244 -72.73270 28309 ft 375 kts 250°
2026-05-09 02:20 42.13065 -72.76430 28509 ft 375 kts 249°
2026-05-09 02:20 42.11771 -72.79469 28978 ft 377 kts 242°
2026-05-09 02:20 42.10144 -72.82262 29270 ft 380 kts 238°
2026-05-09 02:21 42.08432 -72.84989 29525 ft 380 kts 238°
2026-05-09 02:21 42.06727 -72.87702 29798 ft 379 kts 239°
2026-05-09 02:21 42.05068 -72.90461 29904 ft 380 kts 240°
2026-05-09 02:22 42.01775 -72.96119 29949 ft 388 kts 240°
2026-05-09 02:22 41.98397 -73.01833 29987 ft 391 kts 239°
2026-05-09 02:23 41.94581 -73.07176 29949 ft 405 kts 228°
2026-05-09 02:23 41.89967 -73.11671 29984 ft 416 kts 222°
2026-05-09 02:24 41.84992 -73.15661 29997 ft 420 kts 220°
2026-05-09 02:24 41.80015 -73.19768 29986 ft 420 kts 222°
2026-05-09 02:25 41.75047 -73.23939 29970 ft 422 kts 222°
2026-05-09 02:25 41.70056 -73.28105 29975 ft 424 kts 221°
2026-05-09 02:25 41.67575 -73.30170 30364 ft 414 kts 223°
2026-05-09 02:26 41.65378 -73.32490 30853 ft 394 kts 232°
2026-05-09 02:26 41.63478 -73.35022 31097 ft 387 kts 237°
2026-05-09 02:26 41.61720 -73.37717 31260 ft 384 kts 238°
2026-05-09 02:26 41.60009 -73.40445 31481 ft 382 kts 238°
2026-05-09 02:27 41.58288 -73.43152 31614 ft 384 kts 238°
2026-05-09 02:27 41.56538 -73.45859 31781 ft 384 kts 238°
2026-05-09 02:27 41.54781 -73.48551 32002 ft 383 kts 237°
2026-05-09 02:27 41.53029 -73.51228 32127 ft 384 kts 238°
2026-05-09 02:28 41.51281 -73.53908 32300 ft 382 kts 238°
2026-05-09 02:28 41.49536 -73.56585 32480 ft 381 kts 238°
2026-05-09 02:28 41.47810 -73.59261 32738 ft 379 kts 238°
2026-05-09 02:28 41.46081 -73.61918 32918 ft 379 kts 237°
2026-05-09 02:29 41.44375 -73.64537 33076 ft 378 kts 237°
2026-05-09 02:29 41.42646 -73.67175 33337 ft 375 kts 237°
2026-05-09 02:29 41.40930 -73.69769 33584 ft 373 kts 237°
2026-05-09 02:29 41.39221 -73.72367 33762 ft 372 kts 237°
2026-05-09 02:30 41.37524 -73.74956 33905 ft 371 kts 237°
2026-05-09 02:30 41.35822 -73.77544 34051 ft 371 kts 237°
2026-05-09 02:30 41.34117 -73.80126 34094 ft 372 kts 237°
2026-05-09 02:30 41.32411 -73.82709 34219 ft 372 kts 237°
2026-05-09 02:31 41.30687 -73.85281 34329 ft 372 kts 237°
2026-05-09 02:31 41.27240 -73.90374 34519 ft 373 kts 236°
2026-05-09 02:31 41.25503 -73.92917 34776 ft 368 kts 237°
2026-05-09 02:32 41.23772 -73.95389 35024 ft 365 kts 237°
2026-05-09 02:32 41.20325 -74.00356 35197 ft 365 kts 237°
2026-05-09 02:33 41.16897 -74.05383 35336 ft 367 kts 237°
2026-05-09 02:33 41.13491 -74.10448 35532 ft 366 kts 238°
2026-05-09 02:34 41.10296 -74.15690 35742 ft 365 kts 240°
2026-05-09 02:34 41.07138 -74.20900 35901 ft 365 kts 240°
2026-05-09 02:35 41.03905 -74.26129 35950 ft 368 kts 240°
2026-05-09 02:35 41.00671 -74.31437 35969 ft 372 kts 239°
2026-05-09 02:36 40.97357 -74.36764 35985 ft 376 kts 239°
2026-05-09 02:36 40.94021 -74.42149 35999 ft 381 kts 239°
2026-05-09 02:37 40.90656 -74.47545 35984 ft 384 kts 239°
2026-05-09 02:37 40.87252 -74.53017 35998 ft 387 kts 239°
2026-05-09 02:38 40.83837 -74.58480 35997 ft 382 kts 239°
2026-05-09 02:38 40.80486 -74.63841 35976 ft 374 kts 239°
2026-05-09 02:39 40.77185 -74.69087 35946 ft 368 kts 239°
2026-05-09 02:39 40.73950 -74.74229 35923 ft 364 kts 239°
2026-05-09 02:40 40.70734 -74.79340 35949 ft 360 kts 240°
2026-05-09 02:40 40.67542 -74.84409 35959 ft 358 kts 240°
2026-05-09 02:41 40.64373 -74.89441 35964 ft 357 kts 240°
2026-05-09 02:41 40.61200 -74.94463 35958 ft 356 kts 240°
2026-05-09 02:42 40.58028 -74.99473 35952 ft 356 kts 240°
2026-05-09 02:42 40.54854 -75.04449 35955 ft 354 kts 239°
2026-05-09 02:43 40.51717 -75.09375 35966 ft 354 kts 240°
2026-05-09 02:43 40.48581 -75.14354 35994 ft 353 kts 240°
2026-05-09 02:44 40.45454 -75.19325 35988 ft 352 kts 240°
2026-05-09 02:44 40.42314 -75.24284 35994 ft 353 kts 240°
2026-05-09 02:45 40.39169 -75.29258 35966 ft 354 kts 240°
2026-05-09 02:45 40.36036 -75.34190 35999 ft 355 kts 239°
2026-05-09 02:46 40.32874 -75.39164 35997 ft 355 kts 239°
2026-05-09 02:46 40.29701 -75.44150 35998 ft 357 kts 239°
2026-05-09 02:47 40.26519 -75.49155 35999 ft 358 kts 239°
2026-05-09 02:47 40.23307 -75.54159 35999 ft 359 kts 239°
2026-05-09 02:48 40.20345 -75.59353 35980 ft 353 kts 244°
2026-05-09 02:48 40.17717 -75.64715 35998 ft 353 kts 245°
2026-05-09 02:49 40.15088 -75.70139 35982 ft 353 kts 245°
2026-05-09 02:49 40.12407 -75.75484 35985 ft 355 kts 244°
2026-05-09 02:50 40.09686 -75.80879 35997 ft 356 kts 244°
2026-05-09 02:50 40.06953 -75.86279 36001 ft 357 kts 244°
2026-05-09 02:51 40.04214 -75.91697 35944 ft 358 kts 244°
2026-05-09 02:51 40.01484 -75.97079 35957 ft 358 kts 244°
2026-05-09 02:52 39.98731 -76.02497 35965 ft 358 kts 244°
2026-05-09 02:52 39.95964 -76.07913 35964 ft 359 kts 244°
2026-05-09 02:53 39.93197 -76.13347 35962 ft 360 kts 244°
2026-05-09 02:53 39.90435 -76.18745 35973 ft 361 kts 244°
2026-05-09 02:54 39.87650 -76.24191 35964 ft 361 kts 244°
2026-05-09 02:54 39.84858 -76.29647 35959 ft 362 kts 244°
2026-05-09 02:55 39.82057 -76.35098 35981 ft 362 kts 244°
2026-05-09 02:55 39.79267 -76.40523 35968 ft 363 kts 244°
2026-05-09 02:56 39.76459 -76.45967 35960 ft 361 kts 244°
2026-05-09 02:56 39.73664 -76.51374 35977 ft 360 kts 244°
2026-05-09 02:57 39.70877 -76.56765 35967 ft 359 kts 244°
2026-05-09 02:57 39.68103 -76.62127 35945 ft 357 kts 243°
2026-05-09 02:58 39.65335 -76.67458 35963 ft 355 kts 243°
2026-05-09 02:58 39.62600 -76.72722 35963 ft 353 kts 244°
2026-05-09 02:59 39.59849 -76.77995 35968 ft 352 kts 243°
2026-05-09 02:59 39.57111 -76.83250 35971 ft 351 kts 243°
2026-05-09 03:00 39.54840 -76.87599 36008 ft 350 kts 243°
2026-05-09 03:00 39.52106 -76.92827 35978 ft 350 kts 244°
2026-05-09 03:01 39.48825 -76.97599 35967 ft 358 kts 234°
2026-05-09 03:01 39.45292 -77.02123 35980 ft 357 kts 234°
2026-05-09 03:02 39.41458 -77.06335 35987 ft 364 kts 229°
2026-05-09 03:02 39.37494 -77.10334 35989 ft 363 kts 230°
2026-05-09 03:03 39.33561 -77.14412 35987 ft 361 kts 230°
2026-05-09 03:03 39.29657 -77.18496 35980 ft 360 kts 230°
2026-05-09 03:04 39.25766 -77.22568 35983 ft 360 kts 230°
2026-05-09 03:04 39.21881 -77.26646 35982 ft 359 kts 230°
2026-05-09 03:05 39.18019 -77.30656 35985 ft 358 kts 230°
2026-05-09 03:05 39.14145 -77.34699 35982 ft 358 kts 230°
2026-05-09 03:06 39.10271 -77.38726 35952 ft 357 kts 230°
2026-05-09 03:06 39.06404 -77.42739 35973 ft 356 kts 231°
2026-05-09 03:07 39.02572 -77.46717 35966 ft 356 kts 230°
2026-05-09 03:07 38.98710 -77.50719 35968 ft 355 kts 230°
2026-05-09 03:08 38.94864 -77.54697 35969 ft 355 kts 230°
2026-05-09 03:08 38.91043 -77.58642 35951 ft 354 kts 231°
2026-05-09 03:09 38.87205 -77.62599 35971 ft 353 kts 230°
2026-05-09 03:09 38.83366 -77.66555 35982 ft 354 kts 230°
2026-05-09 03:10 38.79512 -77.70520 35986 ft 356 kts 230°
2026-05-09 03:10 38.75644 -77.74500 35987 ft 357 kts 230°
2026-05-09 03:11 38.71754 -77.78490 35984 ft 358 kts 230°
2026-05-09 03:11 38.67842 -77.82463 35968 ft 359 kts 231°
2026-05-09 03:12 38.64152 -77.86659 35999 ft 349 kts 237°
2026-05-09 03:12 38.61033 -77.91361 36004 ft 344 kts 242°
2026-05-09 03:13 38.56768 -77.98693 35997 ft 345 kts 242°
2026-05-09 03:13 38.53901 -78.03638 35996 ft 346 kts 242°
2026-05-09 03:14 38.50997 -78.08554 35960 ft 347 kts 242°
2026-05-09 03:14 38.48077 -78.13434 35972 ft 347 kts 242°
2026-05-09 03:15 38.45147 -78.18346 35983 ft 348 kts 242°
2026-05-09 03:15 38.42221 -78.23273 35981 ft 347 kts 243°
2026-05-09 03:16 38.39589 -78.28406 35974 ft 344 kts 246°
2026-05-09 03:16 38.37089 -78.33625 35961 ft 345 kts 246°
2026-05-09 03:17 38.34555 -78.38817 35978 ft 345 kts 246°
2026-05-09 03:17 38.32029 -78.43983 35984 ft 346 kts 246°
2026-05-09 03:18 38.29480 -78.49170 35981 ft 345 kts 246°
2026-05-09 03:18 38.26930 -78.54371 35989 ft 346 kts 246°
2026-05-09 03:19 38.24633 -78.59049 35994 ft 346 kts 246°
2026-05-09 03:19 38.22080 -78.64247 35986 ft 346 kts 246°
2026-05-09 03:20 38.19525 -78.69444 35975 ft 346 kts 246°
2026-05-09 03:20 38.16976 -78.74623 35957 ft 345 kts 245°
2026-05-09 03:21 38.14425 -78.79775 36007 ft 344 kts 245°
2026-05-09 03:21 38.11872 -78.84936 35990 ft 345 kts 245°
2026-05-09 03:22 38.09326 -78.90069 36000 ft 346 kts 245°
2026-05-09 03:22 38.06759 -78.95235 35996 ft 346 kts 245°
2026-05-09 03:23 38.04189 -79.00403 35991 ft 346 kts 245°
2026-05-09 03:23 38.01618 -79.05568 35987 ft 346 kts 245°
2026-05-09 03:24 37.99050 -79.10741 35983 ft 346 kts 245°
2026-05-09 03:24 37.96465 -79.15907 36046 ft 347 kts 245°
2026-05-09 03:25 37.93884 -79.21073 36077 ft 347 kts 245°
2026-05-09 03:25 37.91310 -79.26205 36098 ft 347 kts 245°
2026-05-09 03:26 37.88923 -79.30926 36141 ft 348 kts 245°
2026-05-09 03:26 37.86315 -79.36087 36160 ft 347 kts 245°
2026-05-09 03:27 37.83856 -79.41051 36161 ft 348 kts 245°
2026-05-09 03:27 37.81280 -79.46155 36157 ft 348 kts 244°
2026-05-09 03:28 37.78950 -79.50745 36035 ft 350 kts 244°
2026-05-09 03:28 37.77650 -79.53308 35846 ft 351 kts 244°
2026-05-09 03:28 37.76332 -79.55909 35754 ft 350 kts 244°
2026-05-09 03:29 37.73721 -79.61035 35708 ft 343 kts 244°
2026-05-09 03:29 37.71152 -79.66062 35617 ft 338 kts 244°
2026-05-09 03:30 37.69886 -79.68557 35503 ft 337 kts 244°
2026-05-09 03:30 37.68614 -79.71041 35356 ft 337 kts 244°
2026-05-09 03:30 37.67350 -79.73530 35199 ft 336 kts 245°
2026-05-09 03:30 37.66093 -79.76034 35080 ft 337 kts 245°
2026-05-09 03:31 37.64849 -79.78494 34947 ft 337 kts 244°
2026-05-09 03:31 37.63705 -79.80747 34854 ft 338 kts 244°
2026-05-09 03:31 37.62435 -79.83239 34697 ft 339 kts 244°
2026-05-09 03:31 37.61406 -79.85259 34597 ft 339 kts 244°
2026-05-09 03:32 37.59094 -79.89767 34429 ft 340 kts 244°
2026-05-09 03:32 37.57025 -79.93768 34237 ft 341 kts 244°
2026-05-09 03:33 37.54567 -79.98562 34096 ft 341 kts 244°
2026-05-09 03:33 37.51988 -80.03547 34030 ft 337 kts 243°
2026-05-09 03:34 37.49468 -80.08436 34028 ft 332 kts 244°
2026-05-09 03:34 37.46970 -80.13296 34013 ft 329 kts 245°
2026-05-09 03:35 37.44462 -80.18150 34035 ft 331 kts 243°
2026-05-09 03:35 37.41923 -80.22975 34025 ft 331 kts 243°
2026-05-09 03:36 37.39396 -80.27807 33995 ft 330 kts 243°
2026-05-09 03:36 37.36903 -80.32601 34012 ft 329 kts 243°
2026-05-09 03:37 37.34395 -80.37433 34031 ft 330 kts 243°
2026-05-09 03:37 37.31891 -80.42286 33988 ft 331 kts 243°
2026-05-09 03:38 37.29287 -80.47052 34005 ft 336 kts 236°
2026-05-09 03:38 37.25921 -80.51176 34069 ft 340 kts 234°
2026-05-09 03:39 37.22688 -80.55457 34070 ft 333 kts 240°
2026-05-09 03:39 37.21115 -80.57635 34058 ft 345 kts 229°
2026-05-09 03:39 37.19096 -80.59359 34064 ft 354 kts 224°
2026-05-09 03:40 37.14999 -80.62743 34042 ft 349 kts 227°
2026-05-09 03:40 37.11174 -80.66435 34034 ft 347 kts 229°
2026-05-09 03:41 37.07358 -80.70136 34016 ft 346 kts 229°
2026-05-09 03:41 37.03569 -80.73792 34019 ft 346 kts 229°
2026-05-09 03:42 36.99753 -80.77467 34025 ft 346 kts 229°
2026-05-09 03:42 36.95932 -80.81141 34030 ft 346 kts 229°
2026-05-09 03:43 36.92103 -80.84818 34035 ft 346 kts 229°
2026-05-09 03:43 36.88394 -80.88377 34004 ft 346 kts 229°
2026-05-09 03:44 36.84569 -80.92041 34034 ft 346 kts 228°
2026-05-09 03:44 36.80748 -80.95692 34021 ft 346 kts 228°
2026-05-09 03:45 36.76935 -80.99343 34029 ft 345 kts 228°
2026-05-09 03:45 36.73117 -81.02987 34051 ft 346 kts 228°
2026-05-09 03:46 36.69296 -81.06631 34045 ft 346 kts 228°
2026-05-09 03:46 36.65485 -81.10254 33958 ft 346 kts 229°
2026-05-09 03:47 36.61908 -81.13665 33998 ft 345 kts 228°
2026-05-09 03:47 36.58091 -81.17281 34005 ft 345 kts 228°
2026-05-09 03:48 36.54271 -81.20903 34042 ft 345 kts 228°
2026-05-09 03:48 36.50799 -81.24812 34047 ft 334 kts 235°
2026-05-09 03:49 36.47573 -81.28994 34074 ft 335 kts 234°
2026-05-09 03:49 36.44322 -81.33158 34069 ft 336 kts 234°
2026-05-09 03:50 36.41070 -81.37325 34058 ft 335 kts 235°
2026-05-09 03:50 36.38025 -81.41638 34069 ft 330 kts 239°
2026-05-09 03:51 36.36635 -81.43856 33806 ft 319 kts 240°
2026-05-09 03:51 36.35317 -81.46019 33270 ft 310 kts 240°
2026-05-09 03:51 36.34049 -81.48185 32296 ft 311 kts 242°
2026-05-09 03:51 36.32818 -81.50391 31249 ft 318 kts 242°
2026-05-09 03:52 36.31573 -81.52648 30561 ft 316 kts 242°
2026-05-09 03:52 36.30301 -81.54864 29791 ft 315 kts 241°
2026-05-09 03:52 36.28983 -81.57048 28805 ft 317 kts 240°
2026-05-09 03:52 36.27676 -81.59251 27955 ft 318 kts 240°
2026-05-09 03:53 36.26353 -81.61465 27100 ft 321 kts 240°
2026-05-09 03:53 36.25021 -81.63690 26316 ft 322 kts 239°
2026-05-09 03:53 36.24132 -81.65171 25793 ft 324 kts 239°
2026-05-09 03:53 36.22778 -81.67411 25067 ft 326 kts 239°
2026-05-09 03:54 36.21433 -81.69675 24331 ft 329 kts 239°
2026-05-09 03:54 36.20063 -81.71946 23666 ft 331 kts 238°
2026-05-09 03:54 36.18712 -81.74189 23019 ft 331 kts 238°
2026-05-09 03:54 36.17401 -81.76368 22401 ft 329 kts 238°
2026-05-09 03:55 36.16552 -81.77770 22036 ft 327 kts 237°
2026-05-09 03:55 36.15366 -81.79706 21528 ft 325 kts 237°
2026-05-09 03:55 36.14557 -81.81048 21156 ft 324 kts 237°
2026-05-09 03:55 36.13397 -81.82956 20623 ft 323 kts 237°
2026-05-09 03:56 36.12460 -81.84484 20304 ft 320 kts 237°
2026-05-09 03:56 36.11275 -81.86430 19820 ft 320 kts 237°
2026-05-09 03:56 36.09944 -81.88617 19364 ft 317 kts 237°
2026-05-09 03:56 36.08625 -81.90788 18864 ft 315 kts 237°
2026-05-09 03:57 36.07338 -81.92932 18387 ft 314 kts 236°
2026-05-09 03:57 36.06031 -81.95092 17856 ft 312 kts 236°
2026-05-09 03:57 36.04730 -81.97236 17350 ft 311 kts 236°
2026-05-09 03:57 36.03434 -81.99368 16856 ft 309 kts 236°
2026-05-09 03:58 36.02142 -82.01488 16377 ft 308 kts 236°
2026-05-09 03:58 36.00852 -82.03598 15786 ft 307 kts 236°
2026-05-09 03:58 35.99571 -82.05700 15317 ft 305 kts 236°
2026-05-09 03:58 35.98293 -82.07792 14872 ft 304 kts 236°
2026-05-09 03:59 35.97023 -82.09867 14477 ft 302 kts 236°
2026-05-09 03:59 35.95766 -82.11923 14194 ft 295 kts 236°
2026-05-09 03:59 35.94553 -82.13907 14115 ft 284 kts 236°
2026-05-09 03:59 35.93373 -82.15833 13812 ft 281 kts 236°
2026-05-09 04:00 35.92452 -82.17340 13500 ft 281 kts 236°
2026-05-09 04:00 35.91348 -82.19143 13152 ft 279 kts 236°
2026-05-09 04:00 35.90263 -82.20910 12780 ft 279 kts 236°
2026-05-09 04:00 35.89306 -82.22471 12480 ft 277 kts 236°
2026-05-09 04:01 35.88416 -82.23918 12151 ft 277 kts 235°
2026-05-09 04:01 35.87298 -82.25802 11686 ft 276 kts 236°
2026-05-09 04:01 35.86209 -82.27536 11366 ft 276 kts 234°
2026-05-09 04:01 35.85498 -82.28630 11151 ft 275 kts 233°
2026-05-09 04:02 35.84311 -82.30457 10806 ft 274 kts 235°
2026-05-09 04:02 35.83568 -82.31678 10567 ft 274 kts 236°
2026-05-09 04:02 35.82667 -82.33177 10251 ft 273 kts 236°
2026-05-09 04:02 35.81691 -82.34801 9918 ft 273 kts 236°
2026-05-09 04:03 35.80821 -82.36253 9597 ft 272 kts 235°
2026-05-09 04:03 35.79689 -82.38111 9207 ft 271 kts 234°
2026-05-09 04:03 35.79119 -82.39038 9027 ft 270 kts 234°
2026-05-09 04:03 35.78048 -82.40779 8663 ft 269 kts 234°
2026-05-09 04:04 35.76920 -82.42604 8269 ft 268 kts 234°
2026-05-09 04:04 35.75799 -82.44429 7908 ft 267 kts 233°
2026-05-09 04:04 35.74687 -82.46244 7555 ft 265 kts 233°
2026-05-09 04:04 35.73572 -82.48047 7177 ft 263 kts 233°
2026-05-09 04:05 35.72386 -82.49752 6711 ft 265 kts 218°
2026-05-09 04:05 35.70750 -82.50785 6354 ft 264 kts 204°
2026-05-09 04:05 35.69070 -82.51643 5951 ft 261 kts 202°
2026-05-09 04:05 35.67383 -82.52410 5580 ft 257 kts 200°
2026-05-09 04:06 35.65708 -82.53130 5238 ft 252 kts 199°
2026-05-09 04:06 35.64070 -82.53828 5090 ft 246 kts 199°
2026-05-09 04:06 35.62494 -82.54501 5033 ft 239 kts 199°
2026-05-09 04:06 35.60951 -82.55186 4998 ft 234 kts 200°
2026-05-09 04:07 35.59439 -82.55864 4980 ft 229 kts 200°
2026-05-09 04:07 35.57961 -82.56529 4994 ft 224 kts 200°
2026-05-09 04:07 35.56509 -82.57173 4998 ft 219 kts 199°
2026-05-09 04:07 35.55067 -82.57807 4799 ft 223 kts 200°
2026-05-09 04:08 35.53611 -82.58468 4486 ft 222 kts 199°
2026-05-09 04:08 35.52123 -82.58639 4321 ft 212 kts 166°
2026-05-09 04:08 35.50884 -82.57927 4231 ft 186 kts 155°
2026-05-09 04:08 35.49802 -82.57146 3731 ft 178 kts 152°
2026-05-09 04:09 35.48741 -82.56439 3253 ft 172 kts 156°
2026-05-09 04:09 35.47661 -82.55966 2903 ft 160 kts 163°
2026-05-09 04:09 35.46657 -82.55577 2653 ft 144 kts 160°
2026-05-09 04:09 35.45776 -82.55179 2404 ft 128 kts 160°
2026-05-09 04:10 35.44950 -82.54806 2254 ft 128 kts 159°
2026-05-09 04:10 35.44092 -82.54413 2170 ft 128 kts 160°
2026-05-09 04:10 35.43513 -82.54163 2150 ft 52 kts 159°
2026-05-09 04:10 35.43238 -82.54036 2143 ft 40 kts 159°
2026-05-09 04:11 35.43076 -82.53901 2142 ft 13 kts 109°
2026-05-09 04:11 35.43079 -82.53856 2143 ft 1 kts 50°
2026-05-09 04:11 35.43123 -82.53848 2144 ft 18 kts 350°
2026-05-09 04:11 35.43233 -82.53892 2145 ft 15 kts 340°
2026-05-09 04:12 35.43322 -82.53920 2148 ft 8 kts 13°
2026-05-09 04:12 35.43373 -82.53885 2150 ft 9 kts 37°
2026-05-09 04:12 35.43402 -82.53843 2147 ft 0 kts 58°
2026-05-09 04:13 35.43484 -82.53870 2149 ft 0 kts 90°